This demonstration page uses our WeatherBlox Daily Observations layout. Learn more.

Hourly Observations for June 28, 2017

Temp ( °F °C ) Dew Point ( °F °C ) Humidity (%) Winds ( mph kmh ) Pressure ( in mb ) Visibility ( mi km ) Precip ( " mm )
12:54 am 00:54 Mostly Clear with Nearby Thunderstorms 78 25.6 65 18.3 64 64 W 25 41 29.79 1009 10 16.0934 0 0
12:59 am 00:59 Mostly Cloudy with Nearby Thunderstorms 75 23.9 63 17.2 66 66 WNW 29 46 29.77 1008 8 12.87472 0 0.0254
1:06 am 01:06 Mostly Cloudy with Heavy Thunderstorms 67 19.4 63 17.2 87 87 W 14 22 29.83 1010 1.75 2.816345 0.03 0.762
1:18 am 01:18 Cloudy with Heavy Thunderstorms 66 18.9 64 17.8 93 93 WNW 15 24 29.8 1009 1 1.60934 0.38 9.652
1:49 am 01:49 Cloudy with Heavy Thunderstorms 66 19 64 18 94 94 W 23 37 29.8 1009 0.75 1.207005 1.03 26.162
1:54 am 01:54 Cloudy with Heavy Thunderstorms 67 19.4 64 17.8 91 91 W 16 26 29.8 1009 1 1.60934 1.1 27.94
2:04 am 02:04 Cloudy with Light Thunderstorms 70 21.1 63 17.2 79 79 WSW 8 13 29.71 1006 2 3.21868 0.21 5.334
2:11 am 02:11 Mostly Cloudy with Light Thunderstorms 69 20.6 63 17.2 81 81 W 7 11 29.77 1008 10 16.0934 0.21 5.334
2:33 am 02:33 Cloudy with Nearby Thunderstorms 68 20 64 17.8 87 87 SSW 7 11 29.74 1007 9 14.48406 0.22 5.588
2:54 am 02:54 Cloudy with Nearby Thunderstorms 68 20 66 18.9 93 93 W 3 6 29.75 1008 10 16.0934 0.24 6.096
3:13 am 03:13 Cloudy with Thunderstorms 68 20 64 17.8 87 87 NNW 36 57 29.83 1010 2 3.21868 0 0.0254
3:19 am 03:19 Cloudy with Heavy Thunderstorms 66 18.9 63 17.2 90 90 NNW 20 31 29.8 1009 1 1.60934 0.12 3.048
3:27 am 03:27 Cloudy with Heavy Thunderstorms 65 18.3 62 16.7 90 90 NNW 12 19 29.8 1009 1.25 2.011675 0.34 8.636
3:48 am 03:48 Cloudy with Light Thunderstorms 64 18 63 17 94 94 ESE 10 17 29.74 1007 4 6.43736 0.65 16.51
3:54 am 03:54 Mostly Cloudy with Thunderstorms 64 17.8 62 16.7 93 93 ESE 13 20 29.74 1007 10 16.0934 0.65 16.51
4:11 am 04:11 Mostly Clear with Nearby Thunderstorms 64 17.8 62 16.7 93 93 SE 14 22 29.71 1006 10 16.0934 0 0
4:18 am 04:18 Mostly Clear 64 17.8 62 16.7 93 93 SE 16 26 29.68 1005 10 16.0934 0 0
4:54 am 04:54 Clear with Light Rain 66 18.9 63 17.2 90 90 SSE 13 20 29.66 1004 10 16.0934 0 0.0254
5:54 am 05:54 Clear 71 21.7 67 19.4 87 87 SSE 15 24 29.68 1005 10 16.0934 0 0.0254
6:54 am 06:54 Sunny 71 21.7 68 20 90 90 S 12 19 29.7 1006 10 16.0934 0 0
7:54 am 07:54 Sunny 72 22.2 68 20 87 87 S 13 20 29.71 1006 10 16.0934 0 0
8:54 am 08:54 Mostly Sunny 75 23.9 70 21.1 84 84 S 13 20 29.7 1006 10 16.0934 0 0
9:54 am 09:54 Mostly Sunny 78 25.6 70 21.1 76 76 SSW 13 20 29.69 1005 10 16.0934 0 0
10:54 am 10:54 Sunny 81 27.2 69 20.6 67 67 SSW 20 31 29.67 1005 10 16.0934 0 0
11:54 am 11:54 Partly Cloudy 84 28.9 68 20 59 59 SW 17 28 29.65 1004 10 16.0934 0 0
12:54 pm 12:54 Mostly Sunny 87 30.6 69 20.6 55 55 W 16 26 29.65 1004 10 16.0934 0 0
1:54 pm 13:54 Mostly Cloudy 87 30.6 70 21.1 57 57 W 14 22 29.65 1004 10 16.0934 0 0
2:54 pm 14:54 Partly Cloudy 88 31.1 69 20.6 54 54 WSW 15 24 29.63 1003 10 16.0934 0 0
3:54 pm 15:54 Mostly Sunny 91 32.8 70 21.1 50 50 W 13 20 29.64 1004 10 16.0934 0 0
4:54 pm 16:54 Sunny 91 32.8 69 20.6 49 49 WNW 17 28 29.62 1003 10 16.0934 0 0
5:54 pm 17:54 Sunny 90 32.2 66 18.9 45 45 WNW 13 20 29.61 1003 10 16.0934 0 0
6:54 pm 18:54 Sunny 89 31.7 66 18.9 47 47 NW 12 19 29.62 1003 10 16.0934 0 0
7:54 pm 19:54 Sunny 87 30.6 65 18.3 48 48 NNW 8 13 29.62 1003 10 16.0934 0 0
8:54 pm 20:54 Sunny 82 27.8 64 17.8 55 55 NW 3 6 29.64 1004 10 16.0934 0 0
9:54 pm 21:54 Clear 80 26.7 66 18.9 62 62 Calm 29.67 1005 10 16.0934 0 0
10:54 pm 22:54 Clear 75 23.9 67 19.4 76 76 Calm 29.68 1005 10 16.0934 0 0
11:54 pm 23:54 Clear 70 21.1 66 18.9 87 87 S 8 13 29.66 1004 10 16.0934 0 0

Powered by AerisWeather